Regional Weather Roundup
Issued by NWS

Home | Current Version | Previous Version | Graphics & Text | Print | Product List | Glossary On
Versions: 1 2 3 4 5 6 7 8 9 10 11 12 13 14 15 16 17 18 19 20 21 22 23 24 25 26 27 28 29 30 31 32 33 34 35 36 37 38 39 40 41 42 43 44 45 46 47 48 49 50
606
ASUS43 KDMX 122108
RWRIA

WEATHER ROUNDUP FOR IOWA
NATIONAL WEATHER SERVICE DES MOINES IA
300 PM CST FRI FEB 12 2016

NOTE: "FAIR" INDICATES FEW OR NO CLOUDS BELOW 12,000 FEET WITH NO
SIGNIFICANT WEATHER AND/OR OBSTRUCTIONS TO VISIBILITY.

* - THESE STATIONS ARE NOT NWS STATIONS...THUS NOT UNDER NWS
QUALITY CONTROL.  THEY ALSO DO NOT REPORT WEATHER SUCH
AS PRECIPITATION OR FOG.

IAZ001>003-012>014-020>022-031>034-043>046-122200-
   NORTHWEST IOWA

CITY           SKY/WX    TMP DP  RH WIND       PRES   REMARKS
CARROLL *      SUNNY     14   3  62 N25       30.50R WCI  -5
CHEROKEE *     SUNNY     12   3  67 N14G25    30.53S WCI  -3
DENISON *      MOSUNNY   14   7  73 N15G22    30.50R WCI  -1
LE MARS *      SUNNY     12   5  73 N14G20    30.57R WCI  -3
ORANGE CITY *  SUNNY     10   3  72 N13G22    30.52R WCI  -5
SHELDON *      SUNNY      9   1  72 N22G29    30.50S WCI -11
SIOUX CITY     SUNNY     19   5  54 N9        30.56S WCI   8
SPENCER        SUNNY     10  -1  61 N17       30.50R WCI  -8
STORM LAKE *   SUNNY     10   3  72 N21       30.49R WCI  -9
$$

IAZ055>058-069>071-079>083-090>094-122200-
   SOUTHWEST IOWA

CITY           SKY/WX    TMP DP  RH WIND       PRES   REMARKS
ATLANTIC *     MOSUNNY   18   7  62 N16G23    30.51S WCI   3
AUDUBON *      SUNNY     16   5  62 NW15G21   30.50R WCI   1
CLARINDA *     SUNNY     25   9  50 N18       30.52S WCI  11
COUNCIL BLFS * CLOUDY    19  10  68 N14       30.51R WCI   6
CRESTON *      SUNNY     19   5  53 N21       30.48R WCI   3
HARLAN  *      SUNNY     16   5  62 N20       30.55R WCI  -1
LAMONI         SUNNY     22   3  44 N16G26    30.45R WCI   8
RED OAK *      SUNNY     21   9  58 N18       30.52S WCI   6
SHENANDOAH *   SUNNY     25   7  46 N21       30.52F WCI  10
$$

IAZ047>049-059>061-072>074-084-122200-
   CENTRAL IOWA

CITY           SKY/WX    TMP DP  RH WIND       PRES   REMARKS
AMES           SUNNY     15   2  56 NW23      30.46S WCI  -3
ANKENY *       SUNNY     18   1  49 NW18G25   30.48R WCI   2
BOONE *        SUNNY     14   0  52 N22G28    30.45R WCI  -4
CHARITON *     SUNNY     19   5  53 N20       30.44S WCI   4
DES MOINES     MOSUNNY   18   2  49 NW21      30.48R WCI   1
GRINNELL*      SUNNY     16   7  67 NW22G29   30.42S WCI  -2
KNOXVILLE *    SUNNY     18   3  53 NW22      30.43S WCI   0
MARSHALLTOWN   SUNNY     15   4  61 NW25      30.43R WCI  -4
NEWTON *       FLURRIES  16   3  57 NW22G30   30.43S WCI  -2
PELLA *        SUNNY     19   3  49 N18G26    30.46R WCI   4
$$

IAZ004>006-015-016-023>025-035-036-122200-
   NORTH CENTRAL IOWA

CITY           SKY/WX    TMP DP  RH WIND       PRES   REMARKS
ALGONA *       PTSUNNY   10   3  72 N17G29    30.46R WCI  -7
CLARION *      MOSUNNY   12   1  62 N25       30.44S WCI  -8
ESTHERVILLE    MOSUNNY    8   0  69 N24G33    30.48R WCI -13
FORT DODGE *   SUNNY     14   1  57 N16G25    30.48R WCI  -2
MASON CITY     SUNNY     11   0  61 NW26      30.43R WCI -10
FOREST CITY *  SUNNY     12   1  62 NW26      30.43R WCI  -8
WEBSTER CITY * MOSUNNY   12   5  73 NW23G30   30.44S WCI  -7
IOWA FALLS *     N/A     14   3  62 NW22G31   30.45R WCI  -4
$$

IAZ007>011-017>019-026>030-037>042-050>054-066-122200-
   NORTHEAST IOWA

CITY           SKY/WX    TMP DP  RH WIND       PRES   REMARKS
CEDAR RAPIDS   SUNNY     18   5  57 NW24G35   30.36R WCI   0
CHARLES CITY * SUNNY     12  -2  52 NW24      30.40R WCI  -8
CLINTON *      SUNNY     22   7  52 NW25G31   30.29R WCI   5
DECORAH *      SUNNY     12  -4  48 N24G32    30.33R WCI  -8
DUBUQUE        SUNNY     16   2  54 NW21G31   30.28R WCI  -1
MONTICELLO *   SUNNY     16   1  53 NW26G37   30.33R WCI  -3
OELWEIN *      MOSUNNY   12   1  62 NW24G35   30.37R WCI  -8
WATERLOO       SUNNY     14   1  56 NW24G35   30.39R WCI  -5
$$

IAZ064-065-067-068-078-122200-
   EAST CENTRAL IOWA

CITY           SKY/WX    TMP DP  RH WIND       PRES   REMARKS
DAVENPORT      SUNNY     21   2  43 NW24G35   30.31R WCI   4
IOWA CITY      SUNNY     20   3  48 NW23G31   30.39R WCI   3
MT. PLEASANT * SUNNY     27   9  46 NW24G31   30.37R WCI  12
MUSCATINE *    SUNNY     25   0  33 NW23G30   30.37R WCI  10
QUAD CITIES    SUNNY     23   1  38 NW28G39   30.31R WCI   6
$$

IAZ062-063-075>077-085>089-095>099-122200-
   SOUTHEAST IOWA

CITY           SKY/WX    TMP DP  RH WIND       PRES   REMARKS
BURLINGTON     SUNNY     25   9  50 NW18G26   30.34R WCI  11
FAIRFIELD *    FLURRIES  21   5  49 NW24G33   30.39R WCI   4
FORT MADISON * SUNNY     25  10  54 NW16G31   30.36R WCI  12
KEOKUK *       MOSUNNY   25  10  54 NW17G26   30.36S WCI  11
OSKALOOSA *      N/A     19   9  63 NW21G31   30.42S WCI   3
CENTERVILLE *  SUNNY     21   7  53 NW21      30.44R WCI   6
OTTUMWA        SUNNY     20   6  55 NW25G33   30.42R WCI   2
WASHINGTON *   SUNNY     21   3  45 NW26G32   30.40R WCI   4
$$

ABBREVIATIONS USED IN REMARKS
   TC - TEMPERATURES IN CELSIUS
  WCI - WIND CHILL INDEX
   HX - HEAT INDEX
  VSB - VISIBILITY
$$





USA.gov is the U.S. government's official web portal to all federal, state and local government web resources and services.